AO-07 1 07530U 74089B 22104.59068272 -.00000033 00000-0 78438-4 0 9992 2 07530 101.9002 84.2708 0012288 162.6807 311.0715 12.53654188169467 UO-11 1 14781U 84021B 22104.51415049 .00000846 00000-0 10874-3 0 9995 2 14781 97.6151 94.8790 0008785 161.6529 198.5004 14.83547785 30560 LO-19 1 20442U 90005G 22104.42442083 .00000117 00000-0 59303-4 0 9995 2 20442 98.7876 68.3309 0011795 2.6148 357.5095 14.33041002683933 HUBBLE 1 20580U 90037B 22104.52753862 .00002607 00000-0 14435-3 0 9996 2 20580 28.4695 232.2970 0002971 69.8054 339.7364 15.10280060556540 MET-2/21 1 22782U 93055A 22104.45046169 .00000019 00000-0 39482-5 0 9998 2 22782 82.5489 65.0296 0022572 163.8841 314.0452 13.83850597445153 AO-27 1 22825U 93061C 22104.56971679 .00000078 00000-0 48030-4 0 9991 2 22825 98.8942 134.2352 0007570 233.3621 126.6865 14.30157730489028 IO-26 1 22826U 93061D 22104.53836366 .00000091 00000-0 52836-4 0 9996 2 22826 98.8885 134.0867 0008277 219.1832 140.8751 14.30501256489270 FO-29 1 24278U 96046B 22104.54735062 -.00000008 00000-0 25125-4 0 9997 2 24278 98.5237 137.0051 0351359 89.1254 275.0119 13.53113155267212 NOAA-15 1 25338U 98030A 22104.78482917 .00000137 00000-0 75403-4 0 9990 2 25338 98.6511 135.1328 0011477 120.7606 239.4706 14.26108379244190 GO-32 1 25397U 98043D 22104.47701286 .00000047 00000-0 40246-4 0 9995 2 25397 98.8117 54.7978 0000571 352.3333 7.7836 14.23743410234321 ISS 1 25544U 98067A 22105.01228729 .00005988 00000-0 11258-3 0 9991 2 25544 51.6446 289.4861 0005045 25.3403 80.4903 15.50058436335380 NO-44 1 26931U 01043C 22104.55709382 .00000088 00000-0 65383-4 0 9992 2 26931 67.0513 223.3196 0007843 272.6402 87.3802 14.30682940 72268 SO-50 1 27607U 02058C 22104.56795588 .00000676 00000-0 11415-3 0 9993 2 27607 64.5533 137.3832 0074541 307.0796 52.3507 14.76004413 38946 CO-55 1 27844U 03031E 22104.55618611 .00000248 00000-0 13110-3 0 9997 2 27844 98.6812 113.2025 0008701 289.5922 70.4317 14.22413610974824 CO-57 1 27848U 03031J 22104.56975069 .00000207 00000-0 11366-3 0 9991 2 27848 98.6859 113.7477 0008709 305.4026 54.6338 14.21975756974602 RS-22 1 27939U 03042A 22104.70574648 .00000871 00000-0 16314-3 0 9993 2 27939 98.1801 245.4823 0013757 53.6550 306.5924 14.67242815991697 NOAA-18 1 28654U 05018A 22104.67677168 .00000172 00000-0 11671-3 0 9995 2 28654 98.9530 175.1536 0014994 148.7769 211.4296 14.12712567871061 CO-58 1 28895U 05043F 22104.35334828 .00000876 00000-0 17518-3 0 9995 2 28895 98.0956 236.7626 0016196 347.4376 12.6420 14.64202761878034 Falconsat-3 1 30776U 07006E 22104.86514466 .00039546 00000-0 71294-3 0 9998 2 30776 35.4324 315.4316 0001143 320.2092 39.8554 15.48746663839707 CO-65 1 32785U 08021C 22104.47497572 .00002094 00000-0 22624-3 0 9994 2 32785 97.6519 77.3856 0014472 86.4927 273.7946 14.89296416757034 AAUSAT2 1 32788U 08021F 22104.47772885 .00004231 00000-0 37358-3 0 9995 2 32788 97.5301 92.0985 0010874 347.0193 13.0747 14.96841619758860 DO-64 1 32789U 08021G 22104.52792267 .00011221 00000-0 65478-3 0 9999 2 32789 97.3460 133.1951 0011517 174.8180 185.3173 15.12049619762266 CO-66 1 32791U 08021J 22104.48269764 .00003546 00000-0 35238-3 0 9990 2 32791 97.6067 82.9597 0014226 49.3068 310.9385 14.92242121757651 RS-30 1 32953U 08025A 22104.79746132 .00000021 00000-0 80971-4 0 9997 2 32953 82.5049 223.5017 0019716 42.7928 317.4686 12.43108728630424 PRISM 1 33493U 09002B 22104.48438828 .00005518 00000-0 45871-3 0 9994 2 33493 98.2251 87.4434 0013587 17.4094 342.7590 14.99097208719398 NOAA-19 1 33591U 09005A 22104.81246799 .00000153 00000-0 10807-3 0 9998 2 33591 99.1554 137.5908 0013963 11.2162 348.9318 14.12548817679463 SRMSAT 1 37841U 11058D 22104.81050323 .00000401 00000-0 75143-4 0 9998 2 37841 19.9721 279.6150 0011942 5.0135 24.3631 14.10739816542465 HRBE 1 37855U 11061F 22104.68982322 .00008690 00000-0 39676-3 0 9993 2 37855 101.7048 190.1966 0158530 253.0707 105.3077 15.10531499572071 RS-40 1 38735U 12041C 22104.56540032 .00000005 00000-0 -33945-4 0 9992 2 38735 82.4733 305.3412 0017462 147.1704 213.0472 12.42584948440584 ZACUBE-1 1 39417U 13066B 22104.50437950 .00001644 00000-0 20779-3 0 9995 2 39417 97.6307 78.9228 0056381 253.8785 105.6218 14.82081143453653 Delfi-N3xt 1 39428U 13066N 22104.56651965 .00002317 00000-0 36441-3 0 9998 2 39428 97.8109 41.7061 0119571 121.6349 239.6588 14.68744502449156 GOMX-1 1 39430U 13066Q 22104.72168799 .00001357 00000-0 25166-3 0 9992 2 39430 97.8119 15.5563 0148197 245.7015 112.8650 14.60018615446992 LO-74 1 39440U 13066AA 22104.70222111 .00002124 00000-0 29528-3 0 9999 2 39440 97.7199 64.9725 0078552 339.5252 20.2815 14.76773866452074 AO-73 1 39444U 13066AE 22104.49898079 .00002019 00000-0 24766-3 0 9993 2 39444 97.6190 81.3163 0055407 242.2001 117.3591 14.83103741452046 SPROUT 1 39770U 14029E 22104.74048125 .00007116 00000-0 74195-3 0 9996 2 39770 97.9322 221.3562 0007448 299.0579 60.9849 14.90063352428176 DTUSAT-2 1 40030U 14033W 22104.37011621 .00002174 00000-0 23334-3 0 9990 2 40030 97.9346 36.9086 0010055 264.7863 95.2207 14.89634798424101 EO-80 1 40032U 14033Y 22104.54253910 .00002352 00000-0 25209-3 0 9991 2 40032 97.9351 37.0937 0010050 265.1234 94.8835 14.89602875424101 HODOYOSHI-1 1 40299U 14070B 22104.89106038 .00005810 00000-0 22676-3 0 9990 2 40299 97.2481 174.9051 0012496 10.5124 77.4254 15.26213748413364 FIREBIRD FU3 1 40377U 15003B 22104.54133611 .00015986 00000-0 51049-3 0 9994 2 40377 99.1101 315.3046 0105207 241.0731 117.9920 15.27298300398656 FIREBIRD FU4 1 40378U 15003C 22104.57069651 .00015275 00000-0 48677-3 0 9994 2 40378 99.1105 315.5368 0105160 240.6565 118.4133 15.27381217398661 GRIFEX 1 40379U 15003D 22104.49913577 .00010268 00000-0 37965-3 0 9996 2 40379 99.1182 302.0287 0118696 281.4138 77.3780 15.21531330397897 XW-2A 1 40903U 15049E 22104.71203853 .00020577 00000-0 35954-3 0 9993 2 40903 97.1888 163.2534 0010040 3.0134 149.9492 15.50635581369374 XW-2C 1 40906U 15049H 22104.69226421 .00006140 00000-0 30208-3 0 9996 2 40906 97.4948 108.6479 0012749 215.0251 267.2976 15.18302684363241 XW-2D 1 40907U 15049J 22104.73897366 .00007136 00000-0 34517-3 0 9997 2 40907 97.4938 108.6273 0012381 208.3610 266.1734 15.18839053363299 LILACSAT-2 1 40908U 15049K 22104.90583833 .00003537 00000-0 19069-3 0 9994 2 40908 97.5170 106.1391 0013981 233.4175 190.8356 15.15354322362868 XW-2E 1 40909U 15049L 22104.87069770 .00010507 00000-0 45978-3 0 9993 2 40909 97.4680 113.1599 0012212 188.1950 292.0468 15.22170801363737 XW-2F 1 40910U 15049M 22104.78656218 .00010454 00000-0 46434-3 0 9993 2 40910 97.4758 112.1955 0012853 191.1654 343.5191 15.21654410363496 XW-2B 1 40911U 15049N 22104.94111096 .00006810 00000-0 33054-3 0 9997 2 40911 97.4925 109.4493 0012192 210.1561 176.1880 15.18738150363219 DCBB 1 40912U 15049P 22104.89890042 .00012035 00000-0 49018-3 0 9990 2 40912 97.4404 116.6641 0014206 158.9401 285.6825 15.24541025364066 TW-1A 1 40928U 15051D 22104.92423654 .00034491 00000-0 52222-3 0 9996 2 40928 97.0468 128.3448 0006250 250.0344 156.4049 15.54569589368351 IO-86 1 40931U 15052B 22103.61753746 .00001058 00000-0 57946-4 0 9996 2 40931 6.0004 271.5735 0014083 330.3771 29.5830 14.76770380353741 ATHENOXAT-1 1 41168U 15077C 22104.91638339 .00015167 00000-0 66405-3 0 9995 2 41168 14.9872 200.7554 0009983 62.4481 85.9853 15.19139818350620 ChubuSat-2 1 41338U 16012B 22104.30384995 .00002044 00000-0 14918-3 0 9995 2 41338 31.0030 72.2680 0013707 236.5850 123.3474 15.01089147337834 ChubuSat-3 1 41339U 16012C 22104.56644136 .00002313 00000-0 16922-3 0 9996 2 41339 31.0107 67.5593 0013627 248.0299 111.8888 15.01194160337873 Horyu-4 1 41340U 16012D 22104.55487774 .00003743 00000-0 26604-3 0 9996 2 41340 31.0055 47.0653 0013859 284.2721 75.6377 15.02830618338109 [email protected] 1 41459U 16025D 22104.86007859 .00018455 00000-0 81885-3 0 9995 2 41459 98.1776 265.3970 0150353 125.1393 236.4009 15.11955696327886 AAUSAT4 1 41460U 16025E 22104.67974922 .00026132 00000-0 10540-2 0 9990 2 41460 98.1732 270.8608 0131887 103.7818 257.8113 15.17054595328264 LO-87 1 41557U 16033B 22104.84459112 .00014001 00000-0 44193-3 0 9998 2 41557 97.3838 202.5297 0010750 239.5734 238.3193 15.32905488327630 NuSat2 1 41558U 16033C 22104.82975635 .00013006 00000-0 38540-3 0 9993 2 41558 97.4021 207.8645 0010148 229.2494 283.9972 15.34936877327887 Lapan A3 1 41603U 16040E 22104.87156572 .00001583 00000-0 75365-4 0 9992 2 41603 97.2145 144.6494 0014133 30.8053 89.3664 15.20464902322373 Pratham 1 41783U 16059A 22104.56179368 .00000451 00000-0 95590-4 0 9990 2 41783 97.9214 148.6525 0033769 18.2565 341.9842 14.63288398296283 TY-1 1 41844U 16066D 22104.84365948 .00013358 00000-0 47978-3 0 9994 2 41844 97.3934 117.2024 0014884 147.3120 336.0193 15.28680005301888 CAS-2T 1 41847U 16066G 22104.42257877 .00000897 00000-0 14349-3 0 9992 2 41847 98.5566 169.1439 0364931 41.5318 321.2991 14.38486285285142 EO-88 1 42017U 17008BX 22104.16213622 .00013263 00000-0 42666-3 0 9994 2 42017 97.2754 171.2935 0006808 116.8947 243.2991 15.32337903287223 CAS-4B 1 42759U 17034B 22104.74682470 .00004911 00000-0 29869-3 0 9991 2 42759 43.0191 323.7127 0009561 253.6844 192.7158 15.11357813266715 CAS-4A 1 42761U 17034D 22104.92706068 .00004727 00000-0 28731-3 0 9996 2 42761 43.0189 321.5542 0009863 257.5747 234.7523 15.11444585266741 NIUSat 1 42766U 17036B 22104.58280478 .00009119 00000-0 36614-3 0 9996 2 42766 97.2102 144.7145 0014157 185.9573 174.1499 15.25084809267068 Aalto 1 1 42775U 17036L 22104.85767024 .00007874 00000-0 32121-3 0 9998 2 42775 97.2058 144.9965 0012908 183.4571 176.6580 15.24613942267088 URSA MAIOR 1 42776U 17036M 22104.33472021 .00006966 00000-0 28081-3 0 9993 2 42776 97.2073 145.1623 0012658 184.1308 175.9828 15.25056811267037 Max Valier Sat 1 42778U 17036P 22104.66941539 .00008451 00000-0 33293-3 0 9998 2 42778 97.2139 147.9867 0011429 182.7371 177.3807 15.25779019267171 Pegasus 1 42784U 17036V 22104.66359921 .00011324 00000-0 42488-3 0 9992 2 42784 97.2075 148.7023 0010779 184.3664 175.7483 15.27326073267273 NUDATSat 1 42787U 17036Y 22104.63125082 .00017857 00000-0 59714-3 0 9998 2 42787 97.2109 152.3378 0010128 173.5466 186.4868 15.30994666267321 SUCHAI 1 1 42788U 17036Z 22104.66046876 .00013728 00000-0 49299-3 0 9995 2 42788 97.2082 150.1728 0010378 179.5748 180.5503 15.28727852267434 SKCUBE 1 42789U 17036AA 22104.36780626 .00009495 00000-0 34794-3 0 9991 2 42789 97.2082 149.4217 0010292 181.4879 178.6332 15.28157134267282 VZLUSAT 1 1 42790U 17036AB 22104.56893631 .00017904 00000-0 60031-3 0 9993 2 42790 97.2110 152.2542 0009683 173.4920 186.6449 15.30912652267464 VENTA 1 1 42791U 17036AC 22104.57662182 .00010526 00000-0 38977-3 0 9997 2 42791 97.2082 149.5572 0009944 181.1512 178.9706 15.27786805267306 Robusta 1B 1 42792U 17036AD 22104.08119584 .00012046 00000-0 43491-3 0 9993 2 42792 97.2081 149.6626 0009826 182.2168 177.9031 15.28586555267283 D-SAT 1 42794U 17036AF 22104.58744936 .00002107 00000-0 18380-3 0 9991 2 42794 97.4533 113.3778 0122264 299.4141 59.4919 14.92324405261950 TechnoSat 1 42829U 17042E 22104.56242452 .00001366 00000-0 14085-3 0 9995 2 42829 97.4298 322.4061 0013050 216.3417 143.6918 14.91671659258564 QIKCOM-1 1 42983U 98067NF 22104.58732706 .00075745 00000-0 34279-3 0 9999 2 42983 51.6327 157.4726 0005657 24.8493 335.2782 15.83251844254773 AO-91 1 43017U 17073E 22104.53196733 .00005756 00000-0 43545-3 0 9996 2 43017 97.6830 1.3312 0251656 37.4004 324.4431 14.80816545237659 PICSAT 1 43132U 18004X 22104.15939605 .00012145 00000-0 42750-3 0 9997 2 43132 97.3757 180.9690 0007634 217.3963 142.6747 15.29443145236579 AO-92 1 43137U 18004AC 22104.47188263 .00008817 00000-0 32552-3 0 9993 2 43137 97.3725 180.2586 0007327 219.5029 140.5678 15.27966234236579 TianYi 2 1 43155U 18008A 22104.89376519 .00008231 00000-0 45062-3 0 9996 2 43155 97.3592 165.3547 0016402 11.3139 104.3487 15.14366649233658 Zhou Enlai 1 43156U 18008B 22104.90964301 .00008748 00000-0 48299-3 0 9999 2 43156 97.3645 165.2315 0013669 12.7482 162.6512 15.14082513233581 TianYi 6 1 43158U 18008D 22104.77731995 .00007172 00000-0 40644-3 0 9993 2 43158 97.3595 163.2053 0013074 13.6735 111.1389 15.13217096233479 S-Net D 1 43186U 18014G 22104.69451440 .00002650 00000-0 23123-3 0 9995 2 43186 97.6637 11.6516 0011939 142.9590 217.2459 14.97630963229376 S-Net B 1 43187U 18014H 22104.56095489 .00002622 00000-0 22883-3 0 9990 2 43187 97.6634 11.4749 0011944 143.3021 216.9021 14.97628884229358 S-Net A 1 43188U 18014J 22104.69483163 .00002632 00000-0 22973-3 0 9996 2 43188 97.6638 11.6660 0011937 142.9614 217.2435 14.97629192229370 S-Net C 1 43189U 18014K 22104.69545010 .00002568 00000-0 22424-3 0 9996 2 43189 97.6634 11.5966 0011919 142.8150 217.3900 14.97627782227929 FMN 1 1 43192U 18015A 22104.87916586 .00028361 00000-0 84379-3 0 9997 2 43192 97.5245 248.4784 0011920 255.3184 234.4312 15.34623298233685 Shaonian Xing 1 43199U 18015H 22104.88063510 .00017987 00000-0 58369-3 0 9997 2 43199 97.5018 244.2068 0013222 266.3441 245.2345 15.31934248233700 SurfSat 1 43614U 18070B 22104.51779547 .00035190 00000-0 62356-3 0 9991 2 43614 93.0268 71.7039 0007290 264.7172 95.3257 15.50125421201147 CP-7 DAVE 1 43615U 18070C 22104.42208978 .00027043 00000-0 49246-3 0 9998 2 43615 93.0269 71.5557 0007612 267.1010 92.9379 15.49375663201105 ELFIN-B 1 43616U 18070D 22104.65060103 .00062779 00000-0 84745-3 0 9998 2 43616 93.0182 72.4908 0005902 243.0922 116.9739 15.57557873201397 ELFIN-A 1 43617U 18070E 22104.66050117 .00066470 00000-0 85449-3 0 9998 2 43617 93.0261 73.7093 0005517 229.5810 130.4974 15.58854498201433 CubeBel-1 1 43666U 18083E 22104.85915674 .00010290 00000-0 45343-3 0 9993 2 43666 97.4273 134.3011 0013474 188.9994 343.1132 15.21923028191808 Changshagaoxin 1 43669U 18083H 22104.84231771 .00009567 00000-0 44081-3 0 9997 2 43669 97.4214 130.4562 0009509 184.6084 348.4988 15.20449979191636 Ten-Koh 1 43677U 18084G 22104.59086196 .00001546 00000-0 16236-3 0 9998 2 43677 97.9531 234.1095 0017047 120.1356 240.1554 14.90891954188169 PO-101 1 43678U 18084H 22104.74209931 .00001668 00000-0 17004-3 0 9999 2 43678 97.9589 237.3068 0010979 130.5976 229.6193 14.92038951188352 IRVINE 01 1 43693U 18088D 22104.40553748 .00025182 00000-0 77924-3 0 9995 2 43693 85.0347 354.1212 0013183 2.3648 357.7660 15.33263251190398 QO-100 1 43700U 18090A 22104.64713584 .00000147 00000-0 00000+0 0 9990 2 43700 0.0195 176.6281 0002621 240.1963 44.7290 1.00271776 12637 Reaktor Hello World 1 43743U 18096AA 22104.17515572 .00010504 00000-0 33960-3 0 9991 2 43743 97.3553 184.3911 0014322 289.1956 70.7736 15.32164741188117 MinXSS-2 1 43758U 18099A 22104.42118265 .00002749 00000-0 24374-3 0 9997 2 43758 97.6301 173.8878 0016819 117.9165 242.3762 14.96922389183520 AO-95 1 43770U 18099N 22104.45739132 .00002702 00000-0 24510-3 0 9997 2 43770 97.6256 172.4694 0015661 128.0036 232.2602 14.96052123183440 RANGE-B 1 43772U 18099Q 22104.47656211 .00003935 00000-0 34985-3 0 9993 2 43772 97.6370 174.0184 0015585 115.0674 245.2168 14.96581058183467 RANGE-A 1 43773U 18099R 22104.49792775 .00001395 00000-0 13002-3 0 9997 2 43773 97.6186 171.4871 0014606 115.4850 244.7884 14.95754212183439 MOVE-II 1 43780U 18099Y 22104.46702179 .00004376 00000-0 38341-3 0 9996 2 43780 97.6292 173.4564 0014828 123.8864 236.3771 14.97099421183483 SNUSat 2 1 43782U 18099AA 22104.71278217 .00002496 00000-0 22573-3 0 9998 2 43782 97.6256 173.1617 0013718 113.9849 246.2810 14.96248523183506 SnugLite 1 43784U 18099AC 22104.42437359 .00001971 00000-0 17838-3 0 9997 2 43784 97.6230 172.5341 0016146 120.8707 239.4105 14.96431238183480 ITASat 1 1 43786U 18099AE 22104.19047419 .00002260 00000-0 20478-3 0 9993 2 43786 97.6280 173.0908 0016308 122.3721 237.9081 14.96249862183447 EAGLET 1 1 43790U 18099AJ 22104.42872964 .00001098 00000-0 10152-3 0 9991 2 43790 97.6281 173.8424 0014456 123.3406 236.9202 14.96490757183217 ESEO 1 43792U 18099AL 22104.47522042 .00001415 00000-0 13079-3 0 9991 2 43792 97.6234 173.1927 0014674 120.7888 239.4780 14.96046080183265 CSIM 1 43793U 18099AM 22104.66975829 .00005257 00000-0 45178-3 0 9991 2 43793 97.6294 174.4740 0014601 116.8805 243.3912 14.97767577183335 Astrocast 0.1 1 43798U 18099AS 22104.44753164 .00003576 00000-0 31484-3 0 9995 2 43798 97.6283 174.2373 0013216 105.0273 255.2413 14.97045899183534 JO-97 1 43803U 18099AX 22104.42827922 .00002014 00000-0 18111-3 0 9992 2 43803 97.6251 173.0650 0016102 120.1517 240.1302 14.96663228183493 Suomi 100 1 43804U 18099AY 22104.44244500 .00002251 00000-0 20226-3 0 9993 2 43804 97.6237 173.0128 0016007 121.1792 239.1002 14.96585837183504 Al Farabi 2 1 43805U 18099AZ 22104.71863018 .00003443 00000-0 30318-3 0 9992 2 43805 97.6252 173.6995 0016047 120.2836 239.9965 14.97030116183561 CHOMPTT 1 43855U 18104G 22104.41808305 .00007642 00000-0 29169-3 0 9996 2 43855 85.0316 93.8028 0018842 111.9766 248.3483 15.26299616184950 ISAT 1 43879U 18111D 22104.52979401 .00002927 00000-0 25554-3 0 9993 2 43879 97.6693 11.3026 0012957 169.0961 191.0544 14.97529031180107 UWE-4 1 43880U 18111E 22104.74087185 .00003009 00000-0 26133-3 0 9994 2 43880 97.6720 12.1694 0012421 167.7522 192.4005 14.97716586178167 Sparrow 1 43881U 18111F 22104.69698492 .00003928 00000-0 33850-3 0 9992 2 43881 97.6749 12.3300 0012600 161.9132 198.2541 14.97839002178165 Lume 1 1 43908U 18111AJ 22104.66687957 .00010021 00000-0 35669-3 0 9995 2 43908 97.2006 354.5108 0017336 304.9424 55.0187 15.29004241183648 FO-98 1 43933U 19003B 22104.84297423 .00667831 00000-0 56756-2 0 9995 2 43933 97.1361 143.1735 0000802 153.5586 206.5716 15.67578918180360 FO-99 1 43937U 19003F 22104.85528021 .00014457 00000-0 51188-3 0 9996 2 43937 97.1384 140.7291 0021675 26.5490 333.6855 15.29000309180259 MYSat 1 1 44045U 18092F 22104.52265458 .00039126 00000-0 71227-3 0 9996 2 44045 51.6358 30.3824 0008121 209.5873 150.4657 15.49071422177944 AstroCast 0.2 1 44083U 19018F 22104.69543392 .00006957 00000-0 27680-3 0 9991 2 44083 97.3295 164.8246 0011457 1.7230 358.4046 15.25522494168765 AISTechSat 3 1 44103U 19018AB 22104.66081828 .00007560 00000-0 29300-3 0 9994 2 44103 97.3158 165.2024 0012220 9.2130 350.9331 15.26356647168913 AISat 1 1 44104U 19018AC 22104.47637062 .00006578 00000-0 19130-3 0 9999 2 44104 97.3971 187.4139 0053255 3.9353 356.2297 15.34363268169783 Prox-1 1 44339U 19036A 22104.53694095 .00003940 00000-0 85639-3 0 9992 2 44339 23.9999 236.8503 0010233 237.7351 122.2149 14.54597718149039 Oculus-ASR 1 44348U 19036K 22104.13173995 .00037994 -60161-5 39667-3 0 9995 2 44348 28.5068 273.6048 0266836 313.7405 44.1385 15.29149619154662 Armadillo 1 44352U 19036P 22104.61183615 .00116362 -29511-5 87136-3 0 9998 2 44352 28.5233 211.8436 0190752 51.5518 310.2039 15.50704739155276 NO-104 1 44354U 19036R 22104.70744038 .00050290 -56806-5 50968-3 0 9999 2 44354 28.5265 257.5154 0258327 336.8823 22.0332 15.31675933154868 NO-103 1 44355U 19036S 22104.37233598 .01062964 55981-3 13513-2 0 9993 2 44355 28.5140 128.1279 0058111 184.2365 175.7762 16.02758002156129 Move-IIb 1 44398U 19038N 22104.54111994 .00012404 00000-0 62839-3 0 9994 2 44398 97.6228 73.4122 0021711 355.6397 4.4629 15.16920729153346 SONATE 1 44400U 19038Q 22104.62541904 .00005868 00000-0 32530-3 0 9996 2 44400 97.6318 72.8999 0023738 357.9082 2.2046 15.13938664153277 BeeSat 9 1 44412U 19038AC 22104.43942949 .00008411 00000-0 44325-3 0 9994 2 44412 97.6301 73.3358 0020718 2.4970 357.6362 15.15661351152994 JAISAT-1 1 44419U 19038F 22104.70923895 .00009719 00000-0 50480-3 0 9991 2 44419 97.6305 74.3945 0019572 359.3637 0.7567 15.16147572153391 LightSail-2 1 44420U 19036AC 22104.53627442 .00051301 00000-0 80681-2 0 9990 2 44420 24.0013 188.8094 0013750 340.3895 19.6071 14.71092875147631 Taurus 1 1 44530U 19059C 22104.80133747 .00002702 00000-0 75834-3 0 9993 2 44530 98.5428 202.7293 0011987 314.6439 45.3761 14.46757904136648 Duchifat 3 1 44854U 19089C 22104.43873329 .00003996 00000-0 31673-3 0 9990 2 44854 36.9646 119.7053 0007028 55.3417 304.7963 15.00548624128311 OPS-SAT 1 44878U 19092F 22104.44862747 .00007815 00000-0 37799-3 0 9992 2 44878 97.4798 289.0031 0012723 198.3997 161.6779 15.18804893128477 TO-108 1 44881U 19093C 22104.76096981 .00000746 00000-0 10138-3 0 9995 2 44881 97.8943 184.8820 0015932 37.9589 322.2731 14.81638718125341 FloripaSat 1 1 44885U 19093G 22104.78646958 .00002419 00000-0 30464-3 0 9999 2 44885 97.8983 186.0289 0015357 45.3724 314.8722 14.82863052125414 RS-44 1 44909U 19096E 22104.55133045 .00000025 00000-0 46862-4 0 9993 2 44909 82.5172 272.7309 0218380 109.0924 253.3963 12.79713201107338 Phoenix 1 45258U 98067RB 22103.82870833 .00121177 00000-0 67825-3 0 9991 2 45258 51.6328 251.6913 0007754 299.3910 60.6316 15.78422695122189 BY70-2 1 45857U 20042B 22104.77816000 .00008111 00000-0 11076-2 0 9993 2 45857 97.9557 182.2679 0009033 327.1147 32.9486 14.78835741 96047 UPMSat 2 1 46276U 20061E 22104.69264014 .00004275 00000-0 21590-3 0 9993 2 46276 97.3962 176.9823 0002596 67.0375 293.1133 15.17610757 89200 AmicalSat 1 46287U 20061R 22104.43171281 .00004371 00000-0 25876-3 0 9998 2 46287 97.4510 175.7194 0003926 125.6931 234.4665 15.11925941 88796 SALSAT 1 46495U 20068K 22104.57435133 .00002733 00000-0 20087-3 0 9999 2 46495 97.7255 45.8915 0017915 130.3659 229.9135 15.04160413 84588 BY70-3 1 46839U 20079N 22104.85545926 .00023104 00000-0 59860-3 0 9992 2 46839 97.2028 177.9032 0006203 191.8893 279.8650 15.39020933 80458 SPOC 1 46921U 98067RR 22104.67443049 .00126936 00000-0 84025-3 0 9997 2 46921 51.6331 260.4775 0003727 277.9827 82.0749 15.74628383 81887 Neutron-1 1 46923U 98067RT 22104.52354075 .00121730 00000-0 81315-3 0 9999 2 46923 51.6338 261.7312 0003945 274.6902 85.3647 15.74436404 81881 CAPE 3 1 47309U 21002A 22104.58526851 .00010846 00000-0 46146-3 0 9990 2 47309 60.6844 244.5643 0015378 249.9856 109.9576 15.23413878 68719 AO-109 1 47311U 21002C 22104.53172185 .00009486 00000-0 39756-3 0 9992 2 47311 60.6851 242.6646 0012111 240.4884 119.4996 15.24092148 68717 MiTEE 1 1 47314U 21002F 22104.69737423 .00019844 00000-0 73342-3 0 9992 2 47314 60.6837 237.0857 0012551 220.9628 139.0520 15.27733363 68842 ExoCube 2 1 47319U 21002L 22104.57816730 .00009308 00000-0 39497-3 0 9990 2 47319 60.6848 243.4034 0012544 246.2509 113.7263 15.23683250 68677 UVSQ-SAT 1 47438U 21006AB 22104.42300490 .00005472 00000-0 29751-3 0 9991 2 47438 97.4444 164.7654 0013583 133.6900 226.5460 15.14807459 67580 YUSAT 1 1 47439U 21006AC 22104.40827422 .00005937 00000-0 32007-3 0 9993 2 47439 97.4449 164.8058 0013371 134.0097 226.2240 15.15078754 67584 SOMP 2b 1 47445U 21006AJ 22104.60742564 .00005057 00000-0 27717-3 0 9990 2 47445 97.4413 164.6627 0013161 136.6213 223.6057 15.14562036 67607 IDEASSat 1 47458U 21006AX 22104.38422163 .00005691 00000-0 31302-3 0 9998 2 47458 97.4504 164.8811 0012239 135.7364 224.4849 15.14390839 67564 RSP-01 1 47925U 98067SB 22104.71067353 .00159916 00000-0 10660-2 0 9994 2 47925 51.6349 269.7364 0004386 279.5760 80.4743 15.74349288 61746 TAUSAT-1 1 47926U 98067SC 22104.70207668 .00343193 00000-0 12095-2 0 9995 2 47926 51.6249 262.8354 0008024 294.4875 65.5292 15.87628846 61821 Tsuru 1 47927U 98067SD 22104.19187208 .00098579 00000-0 78183-3 0 9992 2 47927 51.6352 274.5200 0002988 272.4209 87.6446 15.70488056 61631 STARS-EC 1 47928U 98067SE 22104.47055876 .01896238 30793-2 18397-2 0 9992 2 47928 51.6230 261.9795 0013168 299.4513 60.5188 16.11452508 61806 Maya-2 1 47929U 98067SF 22104.57196236 .00112372 00000-0 89046-3 0 9995 2 47929 51.6347 272.5567 0003016 277.6047 82.4608 15.70450955 61653 OPUSAT-II 1 47930U 98067SG 22104.40989677 .03524807 11894-4 16214-2 0 9994 2 47930 51.6157 260.0446 0013462 303.1008 56.8718 16.20863404 61841 GuaraniSat-1 1 47931U 98067SH 22104.49711577 .00112918 00000-0 88816-3 0 9990 2 47931 51.6356 272.8247 0003066 277.0468 83.0180 15.70626844 61687 CubeSX-Sirius-HSE 1 47951U 21022V 22104.82267624 .00004744 00000-0 32037-3 0 9996 2 47951 97.5357 5.6835 0022408 8.3870 32.0302 15.06861424 58418 CubeSX-HSE 1 47952U 21022W 22104.82058510 .00005202 00000-0 35048-3 0 9994 2 47952 97.5354 5.6956 0022065 7.8697 77.4734 15.06913763 58416 KSU-Cubesat 1 47954U 21022Y 22104.71158416 .00004875 00000-0 32728-3 0 9997 2 47954 97.5379 5.6665 0021219 8.9135 351.2465 15.07094666 58126 GRBAlpha 1 47959U 21022AD 22104.75334530 .00005263 00000-0 35443-3 0 9998 2 47959 97.5355 5.6599 0021899 8.4992 77.8011 15.06930132 57225 Orbicraft-Zorkiy 1 47960U 21022AE 22104.73332065 .00006069 00000-0 40681-3 0 9994 2 47960 97.5389 5.7486 0021168 8.3382 76.9919 15.07049435 57912 STECCO 1 47962U 21022AG 22104.82551464 .00007841 00000-0 50247-3 0 9990 2 47962 97.5335 6.3606 0016914 4.7584 67.5063 15.08683554 57275 DO-111 1 47963U 21022AH 22104.23662753 .00012877 00000-0 76621-3 0 9999 2 47963 97.5385 6.4263 0017771 2.4454 357.6860 15.11236933 57248 MO-110 1 47964U 21022AJ 22104.47395689 .00008345 00000-0 52925-3 0 9993 2 47964 97.5366 6.2233 0018884 1.2829 358.8444 15.09017775 57230 FEES 1 48082U 21022AL 22104.48627051 .00010049 00000-0 63459-3 0 9995 2 48082 97.5372 6.1078 0015043 0.0125 0.1101 15.09171988 56935 RamSat 1 48850U 98067SL 22104.53162864 .00053696 00000-0 61181-3 0 9998 2 48850 51.6382 282.0300 0004320 207.7814 152.2950 15.61703928 47316 MO-112 1 48868U 98067SP 22104.69849174 .01453559 13061-2 20486-2 0 9998 2 48868 51.6213 267.2445 0013580 295.8067 64.1543 16.05181012 46309 TUBIN 1 48900U 21059X 22104.71567466 .00004792 00000-0 27242-3 0 9991 2 48900 97.5418 234.5920 0009477 330.9160 136.2096 15.13329376 44275 IT-SPINS 1 49017U 21013G 22104.40364589 .00008683 00000-0 35341-3 0 9990 2 49017 51.6014 345.9335 0009065 202.6130 157.4450 15.25241202 44004 LEDSAT 1 49069U 21073D 22104.70033432 .00004401 00000-0 28675-3 0 9992 2 49069 97.5276 178.8656 0028354 150.7744 209.5078 15.08098766 36221 CUTE 1 49263U 21088D 22104.47545685 .00004462 00000-0 33929-3 0 9991 2 49263 97.5923 173.6816 0019973 280.0430 79.8541 15.02481616 29817 Binar-1 1 49272U 98067SR 22104.77624156 .00065362 00000-0 77322-3 0 9997 2 49272 51.6373 284.3936 0001392 97.9821 262.1330 15.60653713 29697 Maya-3 1 49273U 98067SS 22104.53007162 .00092650 00000-0 96102-3 0 9991 2 49273 51.6370 284.2508 0000168 180.5289 179.5706 15.63890775 29676 Maya-4 1 49274U 98067ST 22104.60374931 .00086943 00000-0 90912-3 0 9992 2 49274 51.6362 283.9908 0000077 217.9218 142.1772 15.63713283 29682 CUAVA-1 1 49275U 98067SU 22104.78293116 .00065457 00000-0 72605-3 0 9993 2 49275 51.6401 283.4225 0001509 122.6322 359.9439 15.62322858 29651 TeikyoSat 4 1 49396U 21102B 22104.40793042 .00000360 00000-0 33075-4 0 9996 2 49396 97.5390 164.4828 0020243 117.5946 242.7337 15.00483898 23440 Z-Sat 1 49399U 21102E 22104.89481567 .00001830 00000-0 14203-3 0 9992 2 49399 97.5462 165.4085 0025635 88.1590 272.2570 15.02319747 23548 KOSEN 1 1 49402U 21102H 22104.66695807 .00001959 00000-0 14813-3 0 9995 2 49402 97.5347 165.2690 0023744 78.3570 282.0318 15.03269572 23521 HO-113 1 50466U 21131B 22104.66599170 .00000166 00000-0 68882-4 0 9990 2 50466 98.5825 181.9456 0003929 355.3677 4.7473 14.38465146 15747 Tevel 1 50999U 22002R 22104.40890781 .00006795 00000-0 37925-3 0 9990 2 50999 97.4858 172.5424 0010041 279.8814 80.1284 15.13823054 13734 Grizu-263a 1 51025U 22002AT 22104.44103344 .00010156 00000-0 54869-3 0 9999 2 51025 97.5035 172.8612 0011812 283.8980 76.0938 15.14841902 13745 NO-116 1 51031U 22002AZ 22104.44845142 .00008067 00000-0 44151-3 0 9996 2 51031 97.4988 172.7977 0012008 284.7852 75.2049 15.14446318 13743 IRIS-A 1 51044U 22002BN 22104.45571502 .00004179 00000-0 24150-3 0 9994 2 51044 97.4878 172.5024 0007828 287.0502 72.9871 15.12811417 13738 DELFI-PQ 1 51074U 22002CU 22104.43563886 .00008234 00000-0 43281-3 0 9993 2 51074 97.5115 173.1183 0012840 319.1569 40.8701 15.15867901 13759 SO-115 1 51080U 22002DA 22104.71103208 .00007943 00000-0 42275-3 0 9997 2 51080 97.5133 173.3802 0012547 318.5418 41.4861 15.15442837 13791 SO-114 1 51081U 22002DB 22104.44752313 .00006514 00000-0 34742-3 0 9998 2 51081 97.5122 173.1080 0012896 319.4955 40.5316 15.15436800 13753 GASPACS 1 51439U 98067TB 22104.77608517 .00218324 00000-0 19662-2 0 9998 2 51439 51.6359 286.6316 0009175 292.7378 67.2648 15.66918355 12224 /EX